EW4221 Weather Reports


Display with metric or nautical units.
time (UTC)temp
F
wind
direction
speed
MPH
gust
MPH
rain 1hr
in
rain 24hr
in
rain mn
in
humidity
%
barometer
mb
20260505230048 65 227 2.0 7.0 0.00 0.04 0.04 72 1005.0
20260505224549 65 274 3.0 8.0 0.00 0.04 0.04 72 1005.0
20260505223047 65 279 3.0 8.0 0.00 0.04 0.04 73 1004.8
20260505221547 65 228 2.0 8.0 0.00 0.04 0.04 76 1004.6
20260505220059 64 223 3.0 11.0 0.01 0.04 0.04 76 1004.3
20260505214546 64 234 5.0 16.0 0.01 0.04 0.04 73 1004.2
20260505213045 66 249 6.0 13.0 0.01 0.04 0.04 74 1004.4
20260505211550 67 179 4.0 11.0 0.01 0.04 0.04 71 1003.8
20260505210045 67 234 5.0 8.0 0.00 0.03 0.03 70 1004.1
20260505204546 67 278 5.0 11.0 0.00 0.03 0.03 71 1003.8
20260505203042 65 260 6.0 15.0 0.00 0.03 0.03 74 1003.9
20260505201542 63 269 3.0 11.0 0.00 0.03 0.03 81 1004.3
20260505200040 61 271 2.0 5.0 0.03 0.03 0.03 86 1004.0
20260505194544 60 206 0.0 4.0 0.03 0.03 0.03 86 1004.3
20260505193044 60 279 2.0 11.0 0.03 0.03 0.03 84 1004.5
20260505191550 61 271 5.0 23.0 0.03 0.03 0.03 81 1004.4
20260505190033 70 282 15.0 34.0 0.00 0.00 0.00 58 1004.7
20260505184533 73 210 12.0 23.0 0.00 0.00 0.00 41 1002.8
20260505183032 74 196 11.0 25.0 0.00 0.00 0.00 41 1002.6
20260505181529 74 249 11.0 26.0 0.00 0.00 0.00 41 1002.9
20260505180041 74 199 13.0 30.0 0.00 0.00 0.00 41 1003.3
20260505174532 74 209 12.0 31.0 0.00 0.00 0.00 43 1003.7
20260505173021 73 227 9.0 23.0 0.00 0.00 0.00 44 1003.8
20260505171524 73 225 10.0 18.0 0.00 0.00 0.00 45 1004.1
20260505170027 72 211 10.0 26.0 0.00 0.00 0.00 46 1004.0
20260505164520 72 215 13.0 22.0 0.00 0.00 0.00 47 1003.9
20260505163021 72 248 9.0 19.0 0.00 0.00 0.00 47 1003.8
20260505161517 73 190 12.0 25.0 0.00 0.00 0.00 47 1003.9
20260505153012 72 195 10.0 21.0 0.00 0.00 0.00 49 1004.5
20260505151511 72 243 14.0 24.0 0.00 0.00 0.00 47 1004.4
20260505124543 65 241 9.0 20.0 0.00 0.00 0.00 60 1005.1
20260505123057 63 196 8.0 17.0 0.00 0.00 0.00 62 1005.2
20260505121535 62 211 8.0 16.0 0.00 0.00 0.00 64 1005.1
20260505120033 61 226 7.0 19.0 0.00 0.00 0.00 64 1005.2
20260505114533 61 210 6.0 17.0 0.00 0.00 0.00 65 1005.0
20260505113036 61 207 7.0 20.0 0.00 0.00 0.00 67 1004.9
20260505111548 60 219 6.0 15.0 0.00 0.00 0.00 67 1004.7
20260505101517 60 167 5.0 10.0 0.00 0.00 0.00 65 1004.8
20260505100015 61 236 6.0 11.0 0.00 0.00 0.00 63 1004.9
20260505094516 61 227 5.0 14.0 0.00 0.00 0.00 63 1004.9
20260505093013 61 211 8.0 18.0 0.00 0.00 0.00 63 1004.6
20260505091512 60 221 4.0 12.0 0.00 0.00 0.00 63 1004.5
20260505090010 61 194 5.0 15.0 0.00 0.00 0.00 62 1004.3
20260505084516 61 168 6.0 12.0 0.00 0.00 0.00 62 1004.2
20260505083013 61 260 7.0 13.0 0.00 0.00 0.00 62 1004.2
20260505081505 60 207 6.0 13.0 0.00 0.00 0.00 62 1004.1
20260505080009 60 192 6.0 16.0 0.00 0.00 0.00 62 1004.2
20260505074501 60 227 7.0 12.0 0.00 0.00 0.00 62 1004.2
20260505073106 60 226 5.0 15.0 0.00 0.00 0.00 62 1004.3
20260505071557 61 241 4.0 11.0 0.00 0.00 0.00 61 1004.3
20260505070056 61 187 5.0 10.0 0.00 0.00 0.00 61 1004.3
20260505064602 61 218 5.0 11.0 0.00 0.00 0.00 61 1004.4
20260505063055 61 226 6.0 12.0 0.00 0.00 0.00 61 1004.4
20260505061551 61 188 6.0 11.0 0.00 0.00 0.00 60 1004.4
20260505060048 61 187 5.0 11.0 0.00 0.00 0.00 60 1004.6
20260505054556 61 183 6.0 12.0 0.00 0.00 0.00 59 1004.8
20260505053046 62 219 7.0 15.0 0.00 0.00 0.00 58 1004.8
20260505051541 62 247 8.0 18.0 0.00 0.00 0.00 56 1004.8
20260505041535 61 278 6.0 14.0 0.00 0.00 0.00 55 1004.9
20260505040029 62 196 5.0 11.0 0.00 0.00 0.00 54 1004.8
20260505034532 62 234 3.0 11.0 0.00 0.00 0.00 53 1004.6
20260505033031 63 205 6.0 11.0 0.00 0.00 0.00 52 1004.5
20260505031527 63 239 6.0 14.0 0.00 0.00 0.00 52 1004.8
20260505030026 62 218 6.0 15.0 0.00 0.00 0.00 52 1004.7
20260505024538 63 235 5.0 15.0 0.00 0.00 0.00 51 1004.8
20260505023025 63 197 4.0 11.0 0.00 0.00 0.00 51 1004.8
20260505021525 63 246 5.0 12.0 0.00 0.00 0.00 50 1005.1
20260505020024 63 184 7.0 13.0 0.00 0.00 0.00 49 1005.1
20260505014527 63 212 5.0 14.0 0.00 0.00 0.00 48 1005.1
20260505013024 64 220 5.0 15.0 0.00 0.00 0.00 48 1005.1
20260505011522 64 186 5.0 14.0 0.00 0.00 0.00 47 1005.0
20260505010022 64 198 7.0 13.0 0.00 0.00 0.00 45 1004.8
20260505004523 64 214 3.0 7.0 0.00 0.00 0.00 41 1004.8
20260505003021 65 176 3.0 7.0 0.00 0.00 0.00 37 1004.7
20260505001521 67 184 1.0 6.0 0.00 0.00 0.00 37 1004.6
20260505000029 68 195 3.0 10.0 0.00 0.00 0.00 36 1004.5
20260504234520 69 234 5.0 12.0 0.00 0.00 0.00 34 1004.2
20260504233022 70 211 4.0 11.0 0.00 0.00 0.00 33 1004.2
20260504231527 71 227 4.0 11.0 0.00 0.00 0.00 34 1004.1